{"data":{"norad_id":57156,"epoch":"2026-05-25T03:46:16.820832Z","epoch_age_seconds":54709,"freshness":"FRESH","line1":"1 57156U 23090BH  26145.15713913 -.00000884  00000+0 -22605-4 0  9996","line2":"2 57156  42.9963 191.8614 0000635 319.3524  40.7280 15.27579666162239","mean_motion":15.27579666,"eccentricity":6.35e-5,"inclination_deg":42.9963,"raan_deg":191.8614,"arg_perigee_deg":319.3524,"mean_anomaly_deg":40.728,"bstar":-2.2605e-5,"rev_number":16223,"period_min":94.26676932475,"perigee_km":482.61441077539,"apogee_km":483.4857815366,"semimajor_km":6861.187096156,"source":"CELESTRAK","updated_at":"2026-05-25T13:38:18.251172Z"}}